MinXSS-2
1 43758U 18099A 21168.77055851 .00000111 00000-0 14969-4 0 9996
2 43758 97.6667 239.9567 0016690 51.5161 308.7554 14.96066505138569
AO-95
1 43770U 18099N 21168.44996257 .00000212 00000-0 24370-4 0 9997
2 43770 97.6646 238.6372 0015742 61.1399 299.1400 14.95328619138454
RANGE-B
1 43772U 18099Q 21168.14380626 .00001037 00000-0 98251-4 0 9998
2 43772 97.6733 239.3319 0015224 51.0198 309.2377 14.95631661138418
RANGE-A
1 43773U 18099R 21168.18772366 .00000285 00000-0 31023-4 0 9997
2 43773 97.6580 237.7045 0014556 50.4379 309.8125 14.95218620138400
MOVE-II
1 43780U 18099Y 21168.14389488 .00001290 00000-0 12010-3 0 9991
2 43780 97.6667 238.8711 0014753 60.2436 300.0251 14.95938062138422
SNUSat 2
1 43782U 18099AA 21168.41576537 .00000788 00000-0 76066-4 0 9999
2 43782 97.6649 238.9448 0013903 49.4441 310.7988 14.95572440138466
SnugLite
1 43784U 18099AC 21168.75866847 .00000424 00000-0 43091-4 0 9993
2 43784 97.6612 239.0068 0016345 54.4471 305.8271 14.95699691138536
ITASat 1
1 43786U 18099AE 21168.77059198 -.00000017 00000-0 35967-5 0 9993
2 43786 97.6669 239.6290 0016364 53.4334 306.8391 14.95624800138535
EAGLET 1
1 43790U 18099AJ 21168.13613722 .00000638 00000-0 61880-4 0 9997
2 43790 97.6655 239.4198 0014657 59.9339 300.3334 14.95970233138168
ESEO
1 43792U 18099AL 21168.18784059 -.00000010 00000-0 41811-5 0 9994
2 43792 97.6620 239.0635 0014435 56.4774 303.7824 14.95741624138221
CSIM
1 43793U 18099AM 21168.14609814 .00001355 00000-0 12382-3 0 9997
2 43793 97.6654 239.4084 0014183 54.8787 305.3762 14.96599830138227
Astrocast 0.1
1 43798U 18099AS 21168.48721503 .00000828 00000-0 78429-4 0 9998
2 43798 97.6665 239.9593 0013361 40.9327 319.2895 14.96201199138529
JO-97
1 43803U 18099AX 21168.13238340 .00000741 00000-0 71232-4 0 9998
2 43803 97.6627 238.7561 0016222 55.9578 304.3181 14.95868984138443
Suomi 100
1 43804U 18099AY 21168.13787396 .00000873 00000-0 83100-4 0 9992
2 43804 97.6625 238.7282 0016360 56.1701 304.1075 14.95840719138453
Al Farabi 2
1 43805U 18099AZ 21168.54029332 .00000747 00000-0 71476-4 0 9990
2 43805 97.6626 239.3435 0016264 55.2331 305.0414 14.96059401138520
CHOMPTT
1 43855U 18104G 21168.51946156 .00001813 00000-0 72856-4 0 9999
2 43855 85.0368 293.4584 0018482 140.5337 219.7256 15.23994662139101
ISAT
1 43879U 18111D 21168.79669083 -.00000108 00000-0 -44415-5 0 9993
2 43879 97.6859 76.0500 0014256 98.4194 261.8651 14.96633865133106
UWE-4
1 43880U 18111E 21168.24989877 -.00000011 00000-0 40458-5 0 9996
2 43880 97.6876 75.9870 0013667 102.0529 258.2225 14.96877032135053
Sparrow
1 43881U 18111F 21168.55487784 .00001028 00000-0 94396-4 0 9998
2 43881 97.6881 76.4180 0014133 100.0438 260.2380 14.96930619135108
Lume 1
1 43908U 18111AJ 21168.52573438 .00001761 00000-0 70409-4 0 9990
2 43908 97.2335 63.2347 0018812 293.6483 66.2781 15.26248742137681
FO-98
1 43933U 19003B 21168.56003648 .00013233 00000-0 49991-3 0 9992
2 43933 97.1825 209.9580 0016866 39.7968 320.4505 15.26979456134122
FO-99
1 43937U 19003F 21168.58437211 .00002330 00000-0 93317-4 0 9993
2 43937 97.1757 211.7612 0023521 16.7887 343.4125 15.25766770134280
MYSat 1
1 44045U 18092F 21168.01655505 .00005101 00000-0 13574-3 0 9992
2 44045 51.6383 68.3129 0009939 200.4567 159.6021 15.39959488131390
AstroCast 0.2
1 44083U 19018F 21168.70273611 .00001656 00000-0 74180-4 0 9995
2 44083 97.3725 229.7785 0012025 338.9722 21.1019 15.22593583122932
AISTechSat 3
1 44103U 19018AB 21168.73907735 .00001417 00000-0 61161-4 0 9992
2 44103 97.3583 230.2030 0012722 350.7669 127.8970 15.24084258123053
AISat 1
1 44104U 19018AC 21168.66864632 .00001259 00000-0 41321-4 0 9993
2 44104 97.4256 245.9346 0056440 356.3828 3.6998 15.32090684123701
Raavana-1
1 44329U 98067QE 21168.60580095 .00057570 00000-0 33772-3 0 9992
2 44329 51.6359 284.2977 0005416 301.3162 58.7308 15.77695951114185
Uguisu
1 44330U 98067QF 21168.60378716 .00055226 00000-0 33267-3 0 9994
2 44330 51.6311 284.9375 0005467 298.3711 61.6737 15.77115352114153
NepaliSat-1
1 44331U 98067QG 21168.60166554 .00057277 00000-0 33752-3 0 9997
2 44331 51.6333 284.1739 0005334 300.1072 59.9399 15.77597229114172
Prox-1
1 44339U 19036A 21168.57347890 .00000972 00000-0 17854-3 0 9999
2 44339 24.0014 333.4544 0010654 184.4870 175.5526 14.53596153105199
Oculus-ASR
1 44348U 19036K 21168.21010771 .00011869 00000-0 15848-3 0 9993
2 44348 28.5141 135.4881 0330403 264.3270 91.9564 15.11981484108873
Armadillo
1 44352U 19036P 21168.25220074 .00021660 00000-0 27293-3 0 9998
2 44352 28.5299 113.9749 0300249 297.5713 59.4687 15.19446990109042
NO-104
1 44354U 19036R 21168.56876937 .00013622 00000-0 17822-3 0 9995
2 44354 28.5299 126.2769 0325373 277.2712 79.1012 15.13505209108988
NO-103
1 44355U 19036S 21168.14470306 .00044625 00000-0 48980-3 0 9996
2 44355 28.5262 84.1216 0263475 345.9970 13.3433 15.29588136109380
CP9
1 44360U 19036X 21168.28721104 .00109163 -32902-5 71416-3 0 9993
2 44360 28.5035 17.7316 0183630 95.4211 266.7368 15.54640334109924
Move-IIb
1 44398U 19038N 21168.57461383 .00001829 00000-0 10480-3 0 9990
2 44398 97.5831 132.5758 0023510 312.9391 46.9858 15.13669939107788
SONATE
1 44400U 19038Q 21168.57939786 .00000644 00000-0 40559-4 0 9996
2 44400 97.5903 132.4571 0023985 312.8343 47.0863 15.12554227107753
BeeSat 9
1 44412U 19038AC 21168.47014228 .00001359 00000-0 79789-4 0 9994
2 44412 97.5881 132.6231 0021035 317.7789 42.1821 15.13291268107459
JAISAT-1
1 44419U 19038F 21168.43989845 .00001405 00000-0 81298-4 0 9993
2 44419 97.5884 133.1404 0019861 316.2294 43.7362 15.13775544107794
LightSail-2
1 44420U 19036AC 21168.58289985 .00005863 00000-0 11480-2 0 9993
2 44420 24.0050 312.7222 0013247 231.6974 128.2327 14.60131376103523
Taurus 1
1 44530U 19059C 21168.72645379 .00000655 00000-0 19608-3 0 9994
2 44530 98.5522 259.0714 0015204 137.7899 222.4466 14.46074355 93123
Duchifat 3
1 44854U 19089C 21168.85986467 .00000565 00000-0 51528-4 0 9994
2 44854 36.9642 98.2295 0007034 147.6923 212.4268 14.99505127 83164
OPS-SAT
1 44878U 19092F 21168.45397407 .00000954 00000-0 52289-4 0 9997
2 44878 97.4750 351.9480 0014205 163.5770 196.5926 15.16531258 82832
TO-108
1 44881U 19093C 21168.80499091 .00000099 00000-0 19431-4 0 9995
2 44881 97.9238 247.6286 0013742 294.9056 65.0727 14.81456204 80787
FloripaSat 1
1 44885U 19093G 21168.75826936 .00000374 00000-0 53400-4 0 9995
2 44885 97.9259 248.1662 0013397 303.6249 56.3683 14.82304192 80813
RS-44
1 44909U 19096E 21168.54952069 .00000030 00000-0 68734-4 0 9994
2 44909 82.5208 112.7492 0218576 92.8296 269.7842 12.79710222 68830
SwampSat-2
1 45115U 19071E 21168.58915259 .00050875 00000-0 77488-3 0 9998
2 45115 51.6358 15.2202 0005279 293.2372 66.8062 15.53972946 77462
HO-107
1 45119U 19071J 21168.54693797 .00002771 00000-0 89166-4 0 9997
2 45119 51.6429 36.4363 0010597 291.7627 68.2228 15.35806820 77189
Phoenix
1 45258U 98067RB 21168.49488429 .00009762 00000-0 14088-3 0 9998
2 45258 51.6404 328.7079 0005193 251.3849 108.6579 15.56672044 75213
AztechSat-1
1 45261U 98067RE 21168.47872527 .00032190 00000-0 31888-3 0 9994
2 45261 51.6367 318.0787 0006008 273.1324 86.8984 15.65502178 75384
QARMAN
1 45263U 98067RG 21168.58839424 .00021878 00000-0 25362-3 0 9998
2 45263 51.6392 322.5881 0005779 267.1268 92.9064 15.61717650 75367
